Location: Madison
(43.0730°N, 89.3819°W)
Time: 00:43:44
(UTC-05:00)

ISS - Pass Details

Date: 27 January 2019
Orbit: 411 x 421 km, 51.6° (Epoch: 23 October)

Event Time Altitude Azimuth Distance (km) Brightness Sun altitude
Rises 17:21:16 0° 250° (WSW) 2,402 3.4 -3.9°
Reaches altitude 10° 17:23:24 10° 256° (WSW) 1,540 1.0 -4.2°
Maximum altitude 17:26:47 49° 333° (NNW) 570 -3.0 -4.8°
Drops below altitude 10° 17:30:12 10° 50° (NE) 1,554 -1.5 -5.4°
Enters shadow 17:30:59 - 53° (NE) 1,867 -1.1 -5.5°
